Janesville, WI

4:22 AM CDT on September 21, 2017 (GMT -0500)
Rock County

Weather History for KJVL - February, 2013

Change the Weather History Date:

Tuesday, February 19, 2013

  Actual Average Record
Temperature  
Mean Temperature 17 °F -  
Max Temperature 24 °F 33 °F 66 °F (2017)
Min Temperature 10 °F 18 °F -7 °F (2015)
Degree Days  
Heating Degree Days 48    
Moisture  
Dew Point 8 °F    
Average Humidity 72    
Maximum Humidity 85    
Minimum Humidity 62    
Precipitation  
Precipitation 0.00 in - - ()
Sea Level Pressure  
Sea Level Pressure 29.87 in    
Wind  
Wind Speed 17 mph (WNW)    
Max Wind Speed 22 mph    
Max Gust Speed 32 mph    
Visibility 7 miles    
Events Snow    
Averages and records for this station are not official NWS values.
T = Trace of Precipitation, MM = Missing Value Source: NWS Daily Summary

Daily Weather History Graph

Daily Weather History Graph

Search for Another Location

Airport or City:

Trip Planner

Search our weather history database for the weather conditions in past years. The results will help you decide how hot, cold, wet, or windy it might be!

Date:

Astronomy

Feb. 19, 2013 Rise Set
Actual Time 6:46 AM CST 5:33 PM CST
Civil Twilight 6:18 AM CST 6:02 PM CST
Nautical Twilight 5:45 AM CST 6:35 PM CST
Astronomical Twilight 5:12 AM CST 7:07 PM CST
Moon 12:01 PM CST (2/19) 2:22 AM CST (2/19)
Length of Visible Light 11h 44m
Length of Day
10h 46m
Waxing Gibbous, 67% of the Moon is Illuminated
Feb 19
Waxing Gibbous
Feb 25
Full
Mar 4
Last Quarter
Mar 11
New
Mar 19
First Quarter

Hourly Weather History & Observations

Time (CST) Temp. Windchill Dew Point Humidity Pressure Visibility Wind Dir Wind Speed Gust Speed Precip Events Conditions
12:15 AM 24.8 °F 11.5 °F 19.4 °F 80% 29.57 in 10.0 mi West 17.3 mph 25.3 mph N/A   Overcast
12:35 AM 23.0 °F 8.0 °F 17.6 °F 80% 29.58 in 10.0 mi West 20.7 mph 26.5 mph N/A   Overcast
12:55 AM 23.0 °F 10.1 °F 17.6 °F 80% 29.59 in 10.0 mi West 15.0 mph 21.9 mph N/A   Overcast
1:15 AM 21.2 °F 6.4 °F 15.8 °F 80% 29.60 in 10.0 mi West 18.4 mph 26.5 mph N/A   Overcast
1:35 AM 21.2 °F 5.2 °F 15.8 °F 80% 29.60 in 10.0 mi West 21.9 mph 28.8 mph N/A   Overcast
1:55 AM 21.2 °F 5.6 °F 14.0 °F 74% 29.62 in 10.0 mi West 20.7 mph 32.2 mph N/A   Overcast
2:15 AM 19.4 °F 5.0 °F 14.0 °F 80% 29.63 in 7.0 mi West 16.1 mph 25.3 mph N/A Snow Light Snow
2:35 AM 19.4 °F 3.6 °F 14.0 °F 80% 29.64 in 7.0 mi West 19.6 mph 25.3 mph N/A Snow Light Snow
2:55 AM 19.4 °F 4.1 °F 12.2 °F 74% 29.64 in 5.0 mi West 18.4 mph 25.3 mph N/A Snow Light Snow
3:15 AM 17.6 °F 3.7 °F 12.2 °F 79% 29.65 in 5.0 mi West 13.8 mph 24.2 mph N/A Snow Light Snow
3:35 AM 17.6 °F 1.7 °F 12.2 °F 79% 29.65 in 5.0 mi West 18.4 mph 26.5 mph N/A Snow Light Snow
3:55 AM 17.6 °F 2.7 °F 12.2 °F 79% 29.66 in 3.0 mi West 16.1 mph 25.3 mph N/A Snow Light Snow
4:15 AM 17.6 °F 0.9 °F 10.4 °F 73% 29.67 in 2.5 mi West 20.7 mph 25.3 mph N/A Snow Light Snow
4:35 AM 17.6 °F 2.7 °F 10.4 °F 73% 29.68 in 3.0 mi West 16.1 mph 23.0 mph N/A Snow Light Snow
5:45 AM 12.2 °F -5.8 °F 8.6 °F 85% 29.70 in 1.0 mi West 19.6 mph 25.3 mph N/A Snow Light Snow
6:45 AM 12.2 °F -6.3 °F 6.8 °F 79% 29.73 in 1.0 mi West 20.7 mph 26.5 mph N/A Snow Light Snow
7:45 AM 12.2 °F -6.3 °F 6.8 °F 79% 29.76 in 1.5 mi WNW 20.7 mph 26.5 mph N/A Snow Light Blowing Snow
8:45 AM 12.2 °F -6.3 °F 5.0 °F 73% 29.79 in 3.0 mi West 20.7 mph 26.5 mph N/A   Haze
9:45 AM 12.2 °F -5.8 °F 5.0 °F 73% 29.81 in 3.0 mi WNW 19.6 mph 25.3 mph N/A   Haze
11:45 AM 14.0 °F -3.4 °F 5.0 °F 67% 29.87 in 2.5 mi WNW 19.6 mph 26.5 mph N/A   Haze
12:45 PM 14.0 °F -2.5 °F 5.0 °F 67% 29.88 in 4.0 mi West 17.3 mph 28.8 mph N/A   Haze
2:45 PM 15.8 °F -0.2 °F 5.0 °F 62% 29.93 in 7.0 mi West 17.3 mph 28.8 mph N/A   Overcast
3:45 PM 15.8 °F -1.1 °F 5.0 °F 62% 29.96 in 10.0 mi West 19.6 mph 25.3 mph N/A   Overcast
4:45 PM 15.8 °F -0.2 °F 6.8 °F 68% 29.99 in 10.0 mi WNW 17.3 mph 25.3 mph N/A   Mostly Cloudy
6:45 PM 12.2 °F -1.0 °F 3.2 °F 67% 30.06 in 10.0 mi WNW 10.4 mph 16.1 mph N/A   Scattered Clouds
8:15 PM 12.2 °F -1.8 °F 3.2 °F 67% 30.10 in 10.0 mi WNW 11.5 mph - N/A   Clear
8:35 PM 12.2 °F -2.5 °F 3.2 °F 67% 30.11 in 10.0 mi WNW 12.7 mph 17.3 mph N/A   Clear
8:45 PM 12.2 °F -3.1 °F 1.4 °F 62% 30.12 in 10.0 mi WNW 13.8 mph - N/A   Partly Cloudy
8:55 PM 12.2 °F -3.1 °F 3.2 °F 67% 30.13 in 10.0 mi NW 13.8 mph - N/A   Clear
9:15 PM 12.2 °F -2.5 °F 3.2 °F 67% 30.13 in 10.0 mi WNW 12.7 mph - N/A   Clear
9:35 PM 12.2 °F -1.0 °F 1.4 °F 62% 30.15 in 10.0 mi WNW 10.4 mph - N/A   Clear
9:55 PM 10.4 °F -4.1 °F 1.4 °F 67% 30.14 in 10.0 mi WNW 11.5 mph - N/A   Clear
10:15 PM 10.4 °F -3.3 °F 1.4 °F 67% 30.15 in 10.0 mi WNW 10.4 mph - N/A   Clear
10:35 PM 10.4 °F -2.4 °F 1.4 °F 67% 30.15 in 10.0 mi WNW 9.2 mph - N/A   Clear
10:55 PM 10.4 °F -2.4 °F 1.4 °F 67% 30.15 in 10.0 mi WNW 9.2 mph - N/A   Clear
11:15 PM 10.4 °F -2.4 °F 1.4 °F 67% 30.17 in 10.0 mi WNW 9.2 mph - N/A   Clear
11:35 PM 10.4 °F -2.4 °F 1.4 °F 67% 30.17 in 10.0 mi WNW 9.2 mph - N/A   Clear
11:55 PM 10.4 °F -2.4 °F 1.4 °F 67% 30.18 in 10.0 mi WNW 9.2 mph - N/A   Clear